Damir Petkovic

Olheiro - Lucko
13 Jan 2028
Quinta-feira
Processo

Personalidade

Adaptabilidade (13) Ambição (3) Controvérsia (17) Lealdade (10) Pressão (6) Profissionalismo (7) Espírito Esportivo (9) Temperamento (17)

Perfil

Estilo de Treinamento Democrático
Licença Nacional B
Determinação 7
Gestão de Pessoas 3
Motivação 8
Disciplina 3
Satisfação no Trabalho
100%
Fadiga
0%
Função Olheiro
Salário 23.4K p/s
Contrato 14.03.2030

Desempenho

Comportamento Bom
Eficácia do Treinamento
29%
Desenvolvimento do Jogador
45%
Prevenção de Lesões
25%
Implementação Tática
25%

Eventos Recentes

Avaliou um jogador 7d atrás
Participou de uma reunião de recrutamento 7d atrás
Participou de uma reunião de recrutamento 7d atrás
Avaliou um jogador 7d atrás
Avaliou um jogador 7d atrás
Avaliou um jogador 7d atrás
Avaliou um jogador 7d atrás
Avaliou um jogador 14d atrás

Monitorando agora

173
Jogador Clube Status Habilidade Confiança Observado Última observação Último voto
Marco Miori Alvarado Ativo 111 / 118 40% 2 10.01.2028 -
Augusto Berrondo Tristán Suárez Ativo 97 / 102 40% 3 10.01.2028 -
Cristian Rivas Bogota Ativo 101 / 98 40% 1 08.01.2028 -
Enzo Avaro Odd Ativo 101 / 106 40% 1 08.01.2028 -
Lucas Carrizo Plaza Colonia Ativo 115 / 117 40% 3 06.01.2028 -
Richard Celis Zamora Ativo 115 / 105 40% 1 06.01.2028 -
Alan Bonansea Colón Ativo 115 / 115 40% 5 05.01.2028 -
Santiago Sala Güemes Ativo 126 / 125 40% 3 05.01.2028 -
Jonathan Gyan Liberty Professionals Ativo 103 / 102 40% 2 04.01.2028 -
Rashid Magomedov Neftekhimik Ativo 92 / 93 40% 1 04.01.2028 -
Jesús Amarilla Naftan Ativo 95 / 95 40% 2 03.01.2028 -
Elías Ayala Madryn Ativo 100 / 115 40% 1 03.01.2028 -
Bruno Zdunić Dugopolje Ativo 105 / 94 40% 6 02.01.2028 -
Kirill Tsepenkov Dnepr Mogilev Ativo 107 / 109 40% 3 02.01.2028 -
Ezekiel Edidiong Enyimba Ativo 104 / 74 40% 2 01.01.2028 -
Oliver Jürgens Lida Ativo 96 / 93 40% 1 01.01.2028 -
Owen Falconis Cerrito Ativo 88 / 107 40% 1 31.12.2027 -
Santiago Apa All Boys Ativo 104 / 107 40% 2 29.12.2027 -
Renzo Reynaga Patronato Ativo 110 / 119 40% 1 29.12.2027 -
Javier Martínez Almirante Brown Ativo 95 / 95 40% 5 27.12.2027 -
Gafar Saka Plateau United Ativo 104 / 90 40% 2 27.12.2027 -
Brian Calderara Chacarita Juniors Ativo 106 / 121 40% 1 27.12.2027 -
Daniel Bolívar Trujillanos Ativo 107 / 90 40% 1 27.12.2027 -
Matías Samaniego Talleres Ativo 94 / 95 40% 2 26.12.2027 -
Damir Céter Hamrun Spartans Ativo 111 / 103 40% 1 26.12.2027 -
Lucas Pedraza Defensores Unidos Ativo 115 / 95 40% 4 24.12.2027 -
Juan Turletti Gimnasia y Tiro Ativo 107 / 87 40% 3 22.12.2027 -
Miguel Sandberg GIF Sundsvall Ativo 95 / 111 40% 1 22.12.2027 -
Elmer Arunta Bendel Insurance Ativo 79 / 84 40% 4 21.12.2027 -
Alejandro Melo Cibalia Ativo 108 / 124 40% 2 21.12.2027 -
Georgy Melkadze Akhmat Grozny Ativo 123 / 113 40% 1 20.12.2027 -
José Mercado Union Magdalena Ativo 117 / 111 40% 1 20.12.2027 -
Chidiebere Nwobodo Rangers International Ativo 113 / 112 40% 1 20.12.2027 -
Milton Cantero Talleres Ativo 96 / 102 40% 3 18.12.2027 -
Braian Aranda Agropecuario Argentino Ativo 104 / 106 40% 3 18.12.2027 -
Carlos Torres Orenburg Ativo 94 / 107 40% 2 18.12.2027 -
Ronny Maza Aragua Ativo 88 / 85 40% 2 15.12.2027 -
Jere Vrcić Birkirkara Ativo 109 / 94 40% 1 15.12.2027 -
Agustín Benítez Defensores Ativo 105 / 123 40% 1 14.12.2027 -
Esteban da Silva Racing Ativo 112 / 110 40% 4 12.12.2027 -
Iván Fernández Colegiales Ativo 84 / 85 40% 1 12.12.2027 -
Gianluca Pugliese Güemes Ativo 124 / 127 40% 6 03.12.2027 -
Abel Argañaraz Gimnasia y Esgrima Ativo 100 / 86 40% 2 03.12.2027 -
Nicolás Ferreyra Gimnasia y Esgrima Ativo 99 / 116 40% 1 01.12.2027 -
Genaro Rossi San Martín SJ Ativo 100 / 123 40% 2 29.11.2027 -
Richard Figueroa Deportivo Lara Ativo 116 / 121 40% 2 26.11.2027 -
Gustavo Rodriguez Valledupar Ativo 108 / 117 40% 1 25.11.2027 -
Gustavo Viera Cerro Largo Ativo 93 / 91 40% 3 24.11.2027 -
Delfor Minervino Estudiantes Ativo 130 / 102 40% 1 24.11.2027 -
Franco Zicarelli Colegiales Ativo 113 / 122 40% 2 23.11.2027 -
Cristhian Medina Dinamo Brest Ativo 94 / 105 40% 3 20.11.2027 -
Joaquín Avilés Cerrito Ativo 96 / 80 40% 1 19.11.2027 -
Marco Bustillo Zamora Ativo 119 / 115 40% 2 17.11.2027 -
Nicolás Moreno San Martín Ativo 91 / 121 40% 1 15.11.2027 -
Ifeanyi Assurance Rangers International Ativo 104 / 101 40% 1 15.11.2027 -
Franco Benítez Temperley Ativo 93 / 99 40% 1 15.11.2027 -
Santiago Herrera Estudiantes de Caracas Ativo 104 / 96 40% 3 12.11.2027 -
José Balza Deportivo Tachira Ativo 114 / 98 40% 1 12.11.2027 -
Mauro Valiente Estudiantes Ativo 125 / 124 40% 1 11.11.2027 -
Olasunkanmi Quadri Enyimba Ativo 82 / 102 40% 1 11.11.2027 -
Juan Rocca Gimnasia y Tiro Ativo 102 / 114 40% 3 10.11.2027 -
Enzo Silcan Almagro Ativo 128 / 120 40% 1 10.11.2027 -
Tiago Banega Gimnasia y Tiro Rejeitado 116 / 126 40% 1 09.11.2027 Mais informações
Gonzalo Asis Almagro Ativo 103 / 104 40% 1 09.11.2027 -
Luca Franco Arsenal Ativo 117 / 128 40% 4 07.11.2027 -
Chimobi Igwilo Rangers International Ativo 98 / 99 40% 1 05.11.2027 -
Darluis Paz Estudiantes de Caracas Ativo 93 / 87 40% 1 04.11.2027 -
Salomon Chigoziem Nasarawa United Ativo 87 / 92 40% 1 03.11.2027 -
Abubakar Taheer Shooting Stars Ativo 75 / 95 40% 1 02.11.2027 -
Lautaro Disanto Defensores Unidos Ativo 120 / 127 40% 1 02.11.2027 -
Juan David Rueda Alianza Petrolera Ativo 118 / 120 40% 1 29.10.2027 -
Enzo Acosta Estudiantes Ativo 118 / 93 40% 2 28.10.2027 -
Armando Preciado Deportes Quindio Ativo 104 / 110 40% 1 28.10.2027 -
Kirill Kirilenko Dnepr Mogilev Ativo 98 / 103 40% 1 26.10.2027 -
Kleyder Barreto Mineros de Guayana Ativo 89 / 84 40% 1 24.10.2027 -
Alberto Benítez Villalba Levadia Ativo 94 / 94 40% 1 22.10.2027 -
José Rivas Gamboa Trujillanos Ativo 98 / 109 40% 1 22.10.2027 -
Eugenio Olivera Talleres Ativo 107 / 118 40% 1 20.10.2027 -
Juan Mendoza Güemes Ativo 121 / 109 40% 2 19.10.2027 -
Mauricio Lacerda Miramar Misiones Ativo 73 / 79 40% 1 18.10.2027 -
Franco Hanashiro Colegiales Ativo 104 / 97 40% 1 17.10.2027 -
Germán Cervera Alvarado Ativo 104 / 109 40% 1 15.10.2027 -
Chukwudi Okoro Nasarawa United Ativo 88 / 101 40% 1 15.10.2027 -
Joseph Atule Barau Ativo 83 / 106 40% 3 12.10.2027 -
Chidi Akuneto Bendel Insurance Ativo 94 / 73 40% 1 12.10.2027 -
Nazareno Fernández Colombo Los Andes Ativo 103 / 108 40% 1 12.10.2027 -
Umar Ada Nasarawa United Ativo 97 / 92 40% 4 10.10.2027 -
Maren Kefas Plateau United Ativo 97 / 101 40% 1 09.10.2027 -
Ismail Sarki Niger Tornadoes Ativo 97 / 104 40% 2 08.10.2027 -
Waheed Adebayo Rangers International Ativo 95 / 108 40% 2 07.10.2027 -
Shodeinde Moses Ikorodu City Ativo 97 / 92 40% 1 02.10.2027 -
Federico Bisanz Atlanta Ativo 113 / 127 40% 2 01.10.2027 -
Ibrahim Yahaya Barau Ativo 94 / 82 40% 2 29.09.2027 -
Chinedu Onyinjekwu Bayelsa United Ativo 89 / 105 40% 1 29.09.2027 -
Chineme Chinonso Ikorodu City Ativo 92 / 94 40% 2 26.09.2027 -
Abdulraheem Shola Kwara United Ativo 95 / 80 40% 1 23.09.2027 -
Agustín Occhiato Katsina United Ativo 108 / 108 40% 2 21.09.2027 -
Chisom Orji Warri Wolves Ativo 97 / 72 40% 1 20.09.2027 -
David Onovo Katsina United Ativo 102 / 80 40% 2 19.09.2027 -
Auwalu Ali Malam Kano Pillars Ativo 78 / 77 40% 3 16.09.2027 -
Santiago Vera Almirante Brown Ativo 102 / 120 40% 1 13.09.2027 -
Lautaro Núñez Alvarado Ativo 94 / 100 40% 1 13.09.2027 -
Kehinde Lawal Bayelsa United Ativo 82 / 75 40% 1 11.09.2027 -
Federico Sena Estudiantes Ativo 95 / 121 40% 1 09.09.2027 -
Jerry Alex Kwara United Ativo 99 / 100 40% 1 09.09.2027 -
Nicolás Heiz Maipú Ativo 110 / 107 40% 2 06.09.2027 -
Chiedozie Okorie Kano Pillars Ativo 94 / 100 40% 1 06.09.2027 -
Adeshina Gata Kwara United Ativo 86 / 79 40% 1 04.09.2027 -
Isaac Essien WAFA Ativo 107 / 92 40% 3 01.09.2027 -
Lungelo Nguse AS Bakaridjan Ativo 84 / 100 40% 2 01.09.2027 -
Agustín Gallo Tristán Suárez Ativo 102 / 119 40% 2 31.08.2027 -
Oladimeji Dada Ikorodu City Ativo 103 / 91 40% 1 31.08.2027 -
Kelvin Obeng Medeama Ativo 97 / 72 40% 1 25.08.2027 -
Andrea Mattioli Arzignano Ativo 111 / 102 40% 1 20.08.2027 -
Sebastián Cocimano Nueva Chicago Ativo 112 / 114 40% 1 17.08.2027 -
Gladson Paintsil Wa All Stars Ativo 91 / 102 40% 2 16.08.2027 -
Ged Garner Newport County Ativo 87 / 97 40% 1 09.08.2027 -
Gerônimo Cheltenham Town Ativo 88 / 103 40% 1 07.08.2027 -
Niccolò Corti Pergolettese Ativo 93 / 107 40% 1 06.08.2027 -
Louis Flower Crawley Town Ativo 97 / 95 40% 1 05.08.2027 -
Uche Sabastine Warri Wolves Ativo 73 / 69 40% 1 02.08.2027 -
Aaron Collins Milton Keynes Dons Ativo 126 / 112 40% 2 06.07.2027 -
Connor Ogilvie Bristol Rovers Ativo 112 / 113 40% 1 06.07.2027 -
Rafael Assis Imotski Ativo 91 / 74 55% 1 05.07.2027 -
Shilow Tracey Crawley Town Ativo 95 / 102 40% 2 29.05.2027 -
Aaron Drinan Swindon Town Ativo 105 / 93 40% 2 28.05.2027 -
Kenan Dervišagić Floriana Ativo 112 / 102 40% 1 28.05.2027 -
Daniel Udoh Salford City Ativo 109 / 113 40% 1 27.05.2027 -
Michele Emmausso Cosenza Ativo 99 / 92 40% 1 26.05.2027 -
Louis Appéré Cambridge United Ativo 91 / 99 40% 2 25.05.2027 -
Yaw Mensah Hasaacas Ativo 72 / 85 40% 1 25.05.2027 -
Shayne Lavery Cambridge United Ativo 106 / 107 40% 2 24.05.2027 -
Marcus Browne AFC Wimbledon Ativo 109 / 101 40% 6 22.05.2027 -
Camillo Tavernelli Arezzo Ativo 115 / 121 40% 2 20.05.2027 -
Rui Costa Port Vale Ativo 114 / 103 40% 2 17.05.2027 -
Will Evans Mansfield Town Ativo 97 / 97 40% 1 14.05.2027 -
Bismark Asante Ashanti Gold Ativo 105 / 106 40% 5 12.05.2027 -
Francesco Petito Dolomiti Bellunesi Ativo 107 / 110 40% 1 10.05.2027 -
Silvio Merkaj Vicenza Ativo 119 / 127 40% 1 10.05.2027 -
Josh Koroma Leyton Orient Ativo 97 / 97 40% 4 09.05.2027 -
Malick Traoré Onze Createurs Ativo 118 / 85 40% 1 07.05.2027 -
Emanuele Pecorino Catanzaro Ativo 99 / 102 40% 2 06.05.2027 -
Nicola Dalmonte Trento Ativo 102 / 97 40% 1 04.05.2027 -
Lee Bonis Chesterfield Ativo 101 / 105 40% 3 02.05.2027 -
Kimarni Smith Newport County Ativo 96 / 98 40% 1 02.05.2027 -
Lorenzo Di Stefano Torres Ativo 106 / 117 40% 1 30.04.2027 -
Giacomo Zecca Torres Ativo 102 / 107 40% 2 29.04.2027 -
Matthew Dennis Notts County Ativo 89 / 85 40% 1 29.04.2027 -
Brandon Hanlan Doncaster Rovers Ativo 103 / 104 40% 1 28.04.2027 -
Anthony Scully Shrewsbury Town Ativo 98 / 104 40% 1 26.04.2027 -
Jayden Wareham Barnet Ativo 100 / 102 40% 4 21.04.2027 -
Emanuele Schimmenti Potenza Ativo 102 / 109 40% 3 20.04.2027 -
Callum Stead Barnet Ativo 95 / 87 40% 1 20.04.2027 -
Robert Mizo Ashanti Gold Ativo 120 / 118 40% 1 19.04.2027 -
Berna CSKA 1948 Ativo 108 / 124 40% 1 17.04.2027 -
Kamran Aliev SKA Khabarovsk Ativo 91 / 103 40% 2 14.04.2027 -
David Nieland Sambenedettese Ativo 91 / 96 40% 1 13.04.2027 -
Kelly Saravanan Salford City Ativo 120 / 104 40% 1 12.04.2027 -
Daouda Sidibé Aduana Stars Ativo 82 / 66 40% 1 11.04.2027 -
Jaze Kabia Grimsby Town Ativo 82 / 87 40% 1 10.04.2027 -
Marco Tumminello Benevento Ativo 121 / 117 40% 2 08.04.2027 -
Alassana Jatta Notts County Ativo 97 / 107 40% 1 07.04.2027 -
Calum Kavanagh Oldham Athletic Ativo 109 / 100 40% 1 05.04.2027 -
Bruno Gomes Valletta Ativo 105 / 104 40% 1 04.04.2027 -
Sam Nombe Milton Keynes Dons Ativo 100 / 115 40% 1 02.04.2027 -
Guillaume Furrer Lecco Ativo 104 / 102 40% 2 30.03.2027 -
Fortune Bassey Djoliba Ativo 98 / 98 40% 2 26.03.2027 -
José Martínes CSKA 1948 Ativo 103 / 118 40% 1 22.03.2027 -
Lewis McCann Fleetwood Town Ativo 99 / 97 40% 1 18.03.2027 -
Noel Kocijančić Segesta Ativo 74 / 75 48% 1 18.01.2027 -
Dino Godec Lokomotiva Zagreb Ativo 66 / 77 44% 1 17.08.2026 -
Hakeeb Adelakun Doncaster Rovers Ativo 108 / 100 40% 1 05.08.2026 -
Lucas Acosta Aldosivi Ativo 121 / 134 40% 1 01.08.2026 -